Volver al catálogo

BREEZE-M R/B

ActivoHEO
NORAD 39494·ROCKET BODY·🇷🇺 Russia

Lanzado Dec 8, 2013 desde Baikonur Cosmodrome

Loading…

Próximos Pases (próximas 24 horas)

TLE

ActualizadoSource: Space-Track

Época: Sep 12, 2026, 15:52 UTC

1 39494U 13073C   26255.66143240 -.00000393  00000-0  00000-0 0  9995
2 39494  24.6356 178.0249 7400982 176.5792 195.3843  1.09861927 50231

Sigue BREEZE-M R/B en tiempo real con AllMySat

Download on the App Store